This is the latest recevied weather packets stored in our database for station/object LU3HGB-WX. If no packets are shown the sender has not sent any weather packets the latest 10 day(s).
| Time | Temp. | Humidity | Pressure | Rain* | Wind** | Luminosity | Snow |
|---|---|---|---|---|---|---|---|
| 1777322560 | 16.67° C | 41% | 1016 hPa | 0 mm | - | 144 W/m² | - |
| 1777322260 | 17.22° C | 39% | 1016 hPa | 0 mm | - | 163 W/m² | - |
| 1777321960 | 17.78° C | 38% | 1016 hPa | 0 mm | - | 176 W/m² | - |
| 1777321659 | 17.78° C | 36% | 1016 hPa | 0 mm | - | 193 W/m² | - |
| 1777321359 | 17.78° C | 33% | 1016 hPa | 0 mm | - | 210 W/m² | - |
| 1777321060 | 18.33° C | 33% | 1016 hPa | 0 mm | - | 227 W/m² | - |
| 1777320760 | 18.89° C | 33% | 1016 hPa | 0 mm | - | 243 W/m² | - |
| 1777320460 | 18.33° C | 32% | 1016 hPa | 0 mm | - | 263 W/m² | - |
| 1777320159 | 18.33° C | 34% | 1016 hPa | 0 mm | - | 277 W/m² | - |
| 1777319860 | 18.33° C | 34% | 1016 hPa | 0 mm | - | 294 W/m² | - |
| 1777319559 | 18.33° C | 33% | 1017 hPa | 0 mm | - | 311 W/m² | - |
| 1777319260 | 18.33° C | 35% | 1017 hPa | 0 mm | - | 329 W/m² | - |
| 1777318959 | 18.33° C | 33% | 1017 hPa | 0 mm | - | 344 W/m² | - |
| 1777318659 | 18.33° C | 36% | 1017 hPa | 0 mm | - | 366 W/m² | - |
| 1777318360 | 18.33° C | 36% | 1017 hPa | 0 mm | - | 380 W/m² | - |
| 1777318059 | 18.33° C | 32% | 1017 hPa | 0 mm | - | 395 W/m² | - |
| 1777317760 | 18.33° C | 29% | 1017 hPa | 0 mm | - | 412 W/m² | - |
| 1777317460 | 17.78° C | 34% | 1017 hPa | 0 mm | - | 428 W/m² | - |
| 1777317159 | 17.78° C | 34% | 1017 hPa | 0 mm | - | 443 W/m² | - |
| 1777316859 | 17.22° C | 34% | 1017 hPa | 0 mm | - | 462 W/m² | - |
| 1777316560 | 17.22° C | 34% | 1017 hPa | 0 mm | - | 473 W/m² | - |
| 1777316261 | 17.78° C | 33% | 1017 hPa | 0 mm | - | 489 W/m² | - |
| 1777315959 | 17.78° C | 33% | 1017 hPa | 0 mm | - | 504 W/m² | - |
| 1777315661 | 18.33° C | 32% | 1017 hPa | 0 mm | - | 517 W/m² | - |
| 1777315360 | 18.33° C | 32% | 1017 hPa | 0 mm | - | 530 W/m² | - |
* Rain latest hour (hover to see other rain measurements)
** Current wind speed in m/s (hover to see current wind gust speed)